{"data":{"norad_id":62462,"intl_designator":"2024-254A","name":"STARLINK-11518 [DTC]","alt_names":[],"object_type":"PAYLOAD","status":"ACTIVE","operator":null,"country":"US","launch_date":"2024-12-31","launch_site_code":"AFETR","launch_vehicle":null,"mission":null,"orbit_class":"UNKNOWN","rcs_meters":null,"size_class":null,"mass_kg":null,"dimensions":null,"purposes":["comms"],"wikipedia_slug":null,"has_3d_model":false,"image_url":null,"decayed_at":null,"tle_current":{"epoch":"2026-09-21T07:33:01.873728Z","epoch_age_seconds":104626,"freshness":"FRESH","line1":"1 62462U 24254A   26264.31460502  .00157793  00000+0  12090-2 0  9993","line2":"2 62462  43.0001 124.2082 0000993 294.6573  65.4192 15.70860152100177","mean_motion":15.70860152,"eccentricity":9.93e-5,"inclination_deg":43.0001,"raan_deg":124.2082,"arg_perigee_deg":294.6573,"mean_anomaly_deg":65.4192,"bstar":0.001209,"rev_number":10017,"period_min":91.669522469369,"perigee_km":355.76872075253,"apogee_km":357.10620724108,"semimajor_km":6734.5744639968,"source":"CELESTRAK","updated_at":"2026-09-22T09:00:49.584444Z"}}}